[[{"header":{"parameterUnit":"m.s-1","parameterCategory":1,"la1":30.2991,"la2":30.254,"lo1":-89.0895,"lo2":-89.0444,"dy":0.0017,"dx":0.0017,"nx":28,"ny":28,"refTime":"2023-08-13T09:00:00:Z","depth":0,"parameterNumber":2,"parameterNumberName":"U-component_of_WINDS"},"data":[0,0,0,0,0,0,0,0,0,0,0,0,0,0,0,0,0,0,0,0,0,0,0,0,0,0,0,0,0,0,0,0,0,0,0,0,0,0,0,0,0,0,0,0,0,0,0,0,0,0,0,0,0,0,0,0,0,0,3.6993,3.6994,0,3.7045,3.7046,3.7047,3.6979,3.6976,3.6974,3.6971,3.7023,3.7026,3.703,0,0,0,0,0,0,0,0,0,0,0,0,0,3.6831,3.6834,3.6993,3.6994,3.6995,3.7045,3.7046,3.7047,3.6979,3.6976,3.6973,3.697,3.7021,3.7026,3.703,0,0,0,0,0,0,0,0,0,0,0,0,0,3.6894,3.6835,3.6993,3.6967,3.6965,3.7045,3.7046,3.7047,3.698,3.6976,3.6972,3.6969,3.702,3.7025,3.7031,3.7138,0,0,3.7047,3.705,0,0,0,0,0,0,0,0,3.6891,3.69,3.697,3.6969,3.6967,3.7002,3.7008,3.7078,3.6981,3.6974,3.6971,3.6967,3.7019,3.7024,3.7042,3.7141,3.7143,3.7048,3.7051,3.7054,3.7055,0,0,0,0,0,0,0,3.6886,3.6897,3.7014,3.6971,3.6969,3.6951,3.6956,3.702,3.7016,3.6974,3.697,3.6977,3.7017,3.7037,3.7042,3.7144,3.7048,3.7053,3.7056,3.7058,3.7329,3.7333,0,0,0,0,0,0,3.6885,3.6894,3.7012,3.7015,3.6919,3.6957,3.6963,3.6994,3.7015,3.7015,3.698,3.6973,3.7029,3.7036,3.7044,3.7168,3.7054,3.7059,3.7062,3.7326,3.733,3.7334,0,0,0,0,0,0,3.6882,3.6897,3.701,3.6954,3.6967,3.6964,3.7,3.6997,3.7017,3.702,3.7018,3.7001,3.7026,3.7036,3.7115,3.7169,3.7061,3.7066,3.7321,3.7327,3.7332,3.7419,0,0,0,0,0,0,3.6878,3.6896,3.6938,3.6955,3.697,3.7081,3.7003,3.7001,3.7027,3.7019,3.7039,3.7039,3.7024,3.7107,3.712,3.7174,3.707,3.7316,3.7324,3.7331,3.7411,3.7427,3.7441,0,0,0,0,0,3.6872,3.6961,3.694,3.6955,3.7022,3.7085,3.7093,3.7075,3.7032,3.7072,3.7074,3.7038,3.7162,3.7115,3.713,3.7187,3.7312,3.7321,3.733,3.7404,3.7424,3.744,0,0,0,0,0,0,3.695,3.6962,3.694,3.7037,3.706,3.7073,3.7124,3.7097,3.7132,3.7123,3.7099,3.7104,3.7187,3.7195,3.7144,3.729,3.7229,3.7242,3.7281,3.73,3.7314,3.7309,3.7075,0,0,0,0,0,3.6978,3.7028,3.7037,3.7121,3.7134,3.7127,3.7154,3.7138,3.7161,3.717,3.7177,3.72,3.7243,3.7272,3.7313,3.7413,3.7414,3.7459,3.7474,3.7486,3.7495,3.7545,3.7564,3.7363,3.7363,3.7363,0,0,3.7037,3.705,3.7083,3.7137,3.7153,3.7203,3.7136,3.7194,3.723,3.7179,3.7252,3.7258,3.7282,3.737,3.741,3.738,3.7551,3.7497,3.7507,3.751,3.7556,3.7575,3.7592,3.7369,3.7368,3.7367,0,0,3.7169,3.7186,3.7256,3.7274,3.7299,3.7294,3.7311,3.7328,3.7329,3.7403,3.7364,3.7408,3.7484,3.7501,3.752,3.7657,3.7624,3.7671,3.7747,3.7795,3.7811,3.7825,3.787,3.7887,3.7682,3.7682,3.7682,0,3.7239,3.7315,3.7296,3.7355,3.7378,3.7334,3.7403,3.7421,3.7458,3.7474,3.7441,3.7533,3.7547,3.7637,3.767,3.7688,3.7704,3.7667,3.7811,3.7824,3.7837,3.7879,3.7897,3.7687,3.7686,3.7686,3.7685,0,3.7397,3.745,3.7504,3.754,3.7569,3.7634,3.7623,3.7655,3.7636,3.7634,3.7708,3.7722,3.7763,3.7784,3.7767,3.7871,3.7851,3.7815,3.7753,3.7861,3.7901,3.7917,3.7695,3.7693,3.7691,3.769,0,0,3.7578,3.7602,3.7622,3.7636,3.766,3.77,3.7762,3.7802,3.7828,3.7855,3.7904,3.7969,3.7934,3.7956,3.794,3.7984,3.8086,3.7941,3.7941,3.7964,3.8197,3.8222,3.8241,3.8066,3.8069,3.8072,3.8194,0,3.7707,3.7813,3.7797,3.7899,3.7945,3.7904,3.7957,3.7976,3.7976,3.8014,3.8014,3.8058,3.8012,3.8024,3.8065,3.8065,3.8132,3.8057,3.8108,3.811,3.8099,3.8262,3.8289,3.8404,3.821,3.8212,3.8214,0,3.7872,3.7904,3.801,3.8024,3.8043,3.8091,3.8124,3.8163,3.8183,3.818,3.8203,3.8179,3.8238,3.8178,3.8257,3.8206,3.8226,3.8229,3.8233,3.8234,3.8166,3.8264,3.844,3.8456,3.8239,3.8237,3.8235,0,3.7989,3.8059,3.813,3.8144,3.8164,3.8197,3.8207,3.8224,3.8248,3.8278,3.8292,3.8329,3.8348,3.8376,3.8361,3.832,3.8442,3.8381,3.8438,3.8438,3.8462,3.846,3.864,3.8482,3.8482,3.8482,3.8481,0,3.8132,3.8198,3.8182,3.8226,3.8297,3.8277,3.8348,3.8352,3.8368,3.841,3.8377,3.8417,3.8398,3.8436,3.8426,3.849,3.85,3.8497,3.8492,3.8498,3.8497,3.8508,3.8498,3.8486,3.8485,3.8484,3.8484,0,3.8273,3.8266,3.834,3.8352,3.8356,3.8408,3.8417,3.8457,3.8454,3.8507,3.8519,3.8514,3.8557,3.8546,3.8594,3.8586,3.8666,3.8654,3.8659,3.8655,3.871,3.8704,3.89,3.8923,3.8754,3.8756,3.8757,0,3.8363,3.8413,3.8429,3.8455,3.8467,3.8509,3.8533,3.8516,3.8542,3.8568,3.8604,3.8644,3.8675,3.8745,3.8745,3.878,3.8766,3.8832,3.8771,3.8773,3.8762,3.8758,3.876,3.8843,3.8845,3.8847,3.8848,0,3.8523,3.8516,3.8553,3.8587,3.8617,3.8643,3.8666,3.8689,3.8673,3.8704,3.8748,3.8772,3.8819,3.8858,3.889,3.8898,3.887,3.8868,3.8882,3.8886,3.8885,3.8882,3.8688,3.8863,3.8861,3.886,3.8859,3.8859,3.8638,3.8679,3.8696,3.8736,3.8752,3.8774,3.881,3.8812,3.8848,3.8885,3.8873,3.8921,3.8938,3.8978,3.899,3.9027,3.9001,3.9023,3.9028,3.9032,3.9037,3.8883,3.9033,3.9033,3.9032,3.9032,3.9032,0,3.8793,3.8801,3.8839,3.8872,3.8903,3.8875,3.8899,3.8926,3.8969,3.8988,3.9019,3.9067,3.9104,3.9107,3.9142,3.917,3.9158,3.918,3.9175,3.9177,3.906,3.9042,3.9189,3.9189,3.9189,3.9189,3.9189,3.9189,3.8876,3.8941,3.8937,3.9008,3.9016,3.9064,3.9079,3.9098,3.9112,3.9168,3.9199,3.92,3.9211,3.9246,3.9279,3.9278,3.9291,3.9317,3.9311,3.9201,3.9185,3.917,3.9153,3.9321,3.9321,3.9424,3.9425,3.9425]},{"header":{"parameterUnit":"m.s-1","parameterCategory":1,"la1":30.2991,"la2":30.254,"lo1":-89.0895,"lo2":-89.0444,"dy":0.0017,"dx":0.0017,"nx":28,"ny":28,"refTime":"2023-08-13T09:00:00:Z","depth":0,"parameterNumber":3,"parameterNumberName":"V-component_of_WINDS"},"data":[0,0,0,0,0,0,0,0,0,0,0,0,0,0,0,0,0,0,0,0,0,0,0,0,0,0,0,0,0,0,0,0,0,0,0,0,0,0,0,0,0,0,0,0,0,0,0,0,0,0,0,0,0,0,0,0,0,0,2.8356,2.8357,0,2.8478,2.848,2.8481,2.8484,2.8482,2.8481,2.8479,2.8604,2.8609,2.8614,0,0,0,0,0,0,0,0,0,0,0,0,0,2.8123,2.8127,2.8356,2.8357,2.8359,2.8478,2.848,2.8481,2.8484,2.8482,2.848,2.8478,2.8603,2.8608,2.8614,0,0,0,0,0,0,0,0,0,0,0,0,0,2.8233,2.8129,2.8356,2.8375,2.8377,2.8478,2.848,2.8482,2.8484,2.8482,2.848,2.8478,2.8601,2.8608,2.8615,2.8705,0,0,2.8637,2.864,0,0,0,0,0,0,0,0,2.8226,2.8241,2.837,2.8373,2.8377,2.8463,2.8444,2.8557,2.8485,2.8444,2.8479,2.8476,2.8559,2.857,2.8598,2.8711,2.8716,2.8637,2.8642,2.8645,2.8647,0,0,0,0,0,0,0,2.8219,2.8236,2.8404,2.8372,2.8376,2.8376,2.839,2.8465,2.8513,2.8447,2.8448,2.8462,2.8561,2.8591,2.8601,2.8718,2.8637,2.8644,2.8648,2.8651,2.8908,2.891,0,0,0,0,0,0,2.8208,2.823,2.84,2.8408,2.8294,2.8382,2.8397,2.8438,2.8512,2.8521,2.8464,2.8462,2.858,2.8592,2.8605,2.8714,2.8645,2.8651,2.8656,2.8906,2.8909,2.8911,0,0,0,0,0,0,2.8203,2.8223,2.8395,2.8319,2.8341,2.8389,2.8435,2.8442,2.8472,2.8525,2.8533,2.8486,2.8578,2.8595,2.8679,2.8718,2.8655,2.8661,2.8903,2.8906,2.891,2.8932,0,0,0,0,0,0,2.8196,2.8221,2.8256,2.832,2.8345,2.8468,2.8437,2.8446,2.8484,2.8482,2.8548,2.8556,2.8578,2.8669,2.8686,2.8727,2.8667,2.8899,2.8904,2.8909,2.8928,2.8936,2.8943,0,0,0,0,0,2.8188,2.8258,2.8258,2.8278,2.839,2.8471,2.8485,2.8509,2.8487,2.8522,2.8556,2.8554,2.8711,2.8677,2.8697,2.874,2.8897,2.8903,2.8908,2.8925,2.8935,2.8943,0,0,0,0,0,0,2.8198,2.8267,2.8267,2.836,2.841,2.8471,2.8516,2.8519,2.8575,2.8571,2.8598,2.8612,2.8696,2.8727,2.8688,2.883,2.8801,2.8811,2.8807,2.8817,2.8824,2.8815,2.8673,0,0,0,0,0,2.8211,2.8271,2.8328,2.8404,2.8429,2.8468,2.8504,2.8518,2.857,2.8591,2.8631,2.8681,2.8741,2.8781,2.884,2.8933,2.8946,2.8972,2.8979,2.8985,2.8993,2.9043,2.9055,2.893,2.893,2.893,0,0,2.8239,2.8284,2.832,2.8407,2.8447,2.8508,2.8486,2.8552,2.8597,2.8601,2.8683,2.8713,2.8771,2.886,2.8901,2.8888,2.9031,2.8992,2.8997,2.9002,2.905,2.9062,2.9073,2.8934,2.8933,2.8933,0,0,2.832,2.8361,2.8428,2.8468,2.8528,2.8553,2.8569,2.863,2.8651,2.8733,2.8737,2.8791,2.8895,2.8935,2.897,2.9064,2.9064,2.9083,2.9122,2.917,2.918,2.9189,2.9221,2.9233,2.9091,2.9091,2.9091,0,2.8347,2.8439,2.8463,2.8528,2.8566,2.8572,2.8639,2.8677,2.8753,2.8779,2.8763,2.8892,2.8932,2.9029,2.9052,2.908,2.9098,2.9075,2.9176,2.9186,2.9194,2.9225,2.9238,2.9092,2.9092,2.9092,2.9092,0,2.8469,2.8532,2.858,2.8652,2.8695,2.8762,2.8794,2.8835,2.8844,2.8871,2.8954,2.9001,2.9069,2.9093,2.9103,2.9191,2.9181,2.9171,2.9143,2.9207,2.9237,2.925,2.9095,2.9094,2.9094,2.9093,0,0,2.8562,2.8645,2.8662,2.8694,2.876,2.8809,2.8875,2.8941,2.8974,2.9026,2.9082,2.9168,2.9159,2.9197,2.9212,2.9254,2.9325,2.9239,2.924,2.9252,2.9423,2.943,2.9444,2.9325,2.9327,2.9329,2.9418,0,2.8649,2.8767,2.8788,2.8891,2.8949,2.8954,2.9011,2.9057,2.9084,2.9137,2.9166,2.9226,2.9209,2.9233,2.9275,2.9307,2.9359,2.9301,2.9376,2.9378,2.9361,2.946,2.9468,2.9549,2.943,2.9432,2.9433,0,2.8768,2.8822,2.8929,2.8985,2.9011,2.9062,2.9123,2.9174,2.9225,2.9241,2.9284,2.9293,2.9361,2.9329,2.9422,2.9382,2.9414,2.9434,2.9438,2.9446,2.9409,2.9469,2.9576,2.9588,2.9452,2.9451,2.9449,0,2.8823,2.8923,2.8999,2.9027,2.9095,2.913,2.916,2.921,2.9247,2.93,2.9325,2.9385,2.9418,2.9464,2.949,2.9464,2.958,2.9551,2.9595,2.9594,2.9619,2.9617,2.9731,2.964,2.964,2.964,2.964,0,2.8919,2.8984,2.9025,2.9072,2.9145,2.9169,2.924,2.9269,2.9313,2.9366,2.9374,2.9423,2.9453,2.9507,2.9527,2.96,2.9615,2.9629,2.9634,2.9628,2.9626,2.9649,2.9644,2.9643,2.9643,2.9642,2.9641,0,2.8993,2.9023,2.9107,2.9163,2.9179,2.923,2.9279,2.9324,2.935,2.9416,2.9433,2.9473,2.9536,2.9565,2.9643,2.9657,2.9739,2.974,2.9722,2.9723,2.9765,2.976,2.9898,2.9917,2.9814,2.9814,2.9815,0,2.9051,2.9102,2.9163,2.9199,2.9229,2.9287,2.9324,2.935,2.9389,2.945,2.9488,2.9551,2.9603,2.9702,2.9738,2.9798,2.98,2.9844,2.9809,2.9801,2.9799,2.9796,2.98,2.985,2.9851,2.9852,2.9852,0,2.9152,2.9164,2.9218,2.9277,2.9322,2.937,2.9417,2.9445,2.9478,2.9521,2.9585,2.9625,2.9704,2.9766,2.9827,2.9857,2.986,2.9863,2.9876,2.9871,2.9858,2.9864,2.9738,2.986,2.9859,2.9859,2.9858,2.9858,2.922,2.9264,2.9314,2.9373,2.9411,2.9454,2.9499,2.953,2.9584,2.9649,2.9661,2.9729,2.9778,2.986,2.9892,2.9945,2.9935,2.9954,2.9959,2.9963,2.9965,2.9849,2.9956,2.9956,2.9956,2.9956,2.9956,0,2.932,2.9352,2.9406,2.9471,2.9518,2.9516,2.9567,2.9606,2.9665,2.9711,2.9761,2.9834,2.9893,2.9933,2.9994,3.0028,3.0031,3.0043,3.004,3.0047,2.9971,2.9953,3.004,3.004,3.004,3.004,3.004,3.004,2.9377,2.9451,2.9469,2.9561,2.9593,2.9659,2.9688,2.9728,2.9764,2.9844,2.9894,2.9919,2.9962,3.0025,3.008,3.009,3.0111,3.0124,3.0133,3.0062,3.0053,3.0044,3.0028,3.0128,3.0128,3.0205,3.0206,3.0206]}]]